[[{"header":{"parameterUnit":"m.s-1","parameterCategory":1,"la1":30.2991,"la2":30.254,"lo1":-89.0895,"lo2":-89.0444,"dy":0.0017,"dx":0.0017,"nx":28,"ny":28,"refTime":"2023-10-26T21:00:00:Z","depth":0,"parameterNumber":2,"parameterNumberName":"U-component_of_WINDS"},"data":[0,0,0,0,0,0,0,0,0,0,0,0,0,0,0,0,0,0,0,0,0,0,0,0,0,0,0,0,0,0,0,0,0,0,0,0,0,0,0,0,0,0,0,0,0,0,0,0,0,0,0,0,0,0,0,0,0,0,-2.6615,-2.6614,0,-2.6545,-2.6544,-2.6543,-2.6415,-2.6413,-2.641,-2.6408,-2.6339,-2.6339,-2.634,0,0,0,0,0,0,0,0,0,0,0,0,0,-2.6643,-2.6643,-2.6615,-2.6614,-2.6613,-2.6545,-2.6544,-2.6543,-2.6416,-2.6413,-2.641,-2.6407,-2.6339,-2.6339,-2.634,0,0,0,0,0,0,0,0,0,0,0,0,0,-2.6608,-2.6643,-2.6615,-2.6541,-2.6534,-2.6545,-2.6544,-2.6542,-2.6416,-2.6412,-2.6409,-2.6405,-2.6338,-2.6339,-2.634,-2.6418,0,0,-2.6342,-2.6342,0,0,0,0,0,0,0,0,-2.661,-2.6607,-2.6553,-2.6546,-2.6538,-2.6485,-2.6528,-2.6501,-2.6417,-2.6461,-2.6408,-2.6404,-2.6391,-2.6387,-2.6382,-2.6414,-2.6411,-2.6342,-2.6342,-2.6343,-2.6343,0,0,0,0,0,0,0,-2.6612,-2.6609,-2.6587,-2.6552,-2.6543,-2.6513,-2.6504,-2.6522,-2.6447,-2.6457,-2.6447,-2.6441,-2.6386,-2.6381,-2.6379,-2.641,-2.6342,-2.6342,-2.6343,-2.6343,-2.6505,-2.6509,0,0,0,0,0,0,-2.6625,-2.6612,-2.6589,-2.6585,-2.6566,-2.6516,-2.6505,-2.6506,-2.6447,-2.6434,-2.6444,-2.6435,-2.6382,-2.6378,-2.6376,-2.6464,-2.6343,-2.6343,-2.6344,-2.6501,-2.6506,-2.651,0,0,0,0,0,0,-2.6626,-2.6624,-2.6592,-2.6596,-2.6589,-2.6519,-2.652,-2.6506,-2.6501,-2.6437,-2.6423,-2.6453,-2.6379,-2.6375,-2.6408,-2.646,-2.6344,-2.6344,-2.6497,-2.6503,-2.6508,-2.664,0,0,0,0,0,0,-2.6627,-2.6625,-2.6653,-2.6597,-2.659,-2.6625,-2.6523,-2.6508,-2.6503,-2.649,-2.6442,-2.643,-2.6376,-2.6408,-2.6409,-2.6459,-2.6345,-2.6492,-2.6499,-2.6506,-2.6631,-2.665,-2.6666,0,0,0,0,0,-2.6629,-2.6694,-2.6655,-2.6653,-2.6623,-2.6628,-2.6624,-2.6559,-2.6507,-2.6535,-2.6494,-2.6432,-2.6454,-2.6413,-2.6413,-2.6463,-2.6488,-2.6497,-2.6506,-2.6623,-2.6646,-2.6666,0,0,0,0,0,0,-2.6758,-2.6685,-2.6641,-2.669,-2.6666,-2.6606,-2.6639,-2.6585,-2.6576,-2.6565,-2.6486,-2.6476,-2.652,-2.6495,-2.645,-2.6536,-2.6461,-2.6471,-2.6551,-2.6572,-2.6589,-2.6594,-2.6345,0,0,0,0,0,-2.6792,-2.6801,-2.6737,-2.6786,-2.6776,-2.6711,-2.671,-2.6663,-2.6635,-2.6624,-2.6585,-2.6562,-2.6564,-2.6567,-2.6565,-2.6627,-2.6615,-2.6662,-2.668,-2.6694,-2.6703,-2.6735,-2.6756,-2.6539,-2.6539,-2.6539,0,0,-2.6862,-2.6824,-2.6834,-2.6811,-2.6787,-2.6799,-2.6703,-2.672,-2.6728,-2.6627,-2.6656,-2.6627,-2.6596,-2.6644,-2.6664,-2.6625,-2.6761,-2.6706,-2.6718,-2.6718,-2.6746,-2.6767,-2.6785,-2.6545,-2.6544,-2.6543,0,0,-2.6997,-2.6968,-2.7006,-2.6984,-2.6948,-2.6904,-2.6914,-2.6863,-2.684,-2.6867,-2.6792,-2.6802,-2.6807,-2.6788,-2.6779,-2.6909,-2.6851,-2.691,-2.7002,-2.7034,-2.7051,-2.7066,-2.7113,-2.713,-2.692,-2.692,-2.692,0,-2.7089,-2.7103,-2.7032,-2.7054,-2.7047,-2.6956,-2.6994,-2.6977,-2.6944,-2.6941,-2.6898,-2.6902,-2.6875,-2.6918,-2.695,-2.6946,-2.6955,-2.6915,-2.7054,-2.7068,-2.7081,-2.7125,-2.7143,-2.6927,-2.6926,-2.6926,-2.6925,0,-2.7218,-2.723,-2.7265,-2.7234,-2.7231,-2.7261,-2.7197,-2.7202,-2.7156,-2.7117,-2.7147,-2.7112,-2.7101,-2.7108,-2.7063,-2.7146,-2.7123,-2.7069,-2.6992,-2.711,-2.715,-2.7166,-2.6938,-2.6935,-2.6933,-2.6931,0,0,-2.743,-2.7361,-2.7375,-2.736,-2.7316,-2.7324,-2.7351,-2.734,-2.7347,-2.7328,-2.7349,-2.7356,-2.7306,-2.7296,-2.7248,-2.7277,-2.7383,-2.7219,-2.7217,-2.7251,-2.7473,-2.7514,-2.7534,-2.7345,-2.7348,-2.735,-2.7476,0,-2.7554,-2.7595,-2.7533,-2.7589,-2.7599,-2.7514,-2.7538,-2.7515,-2.748,-2.7485,-2.7447,-2.7453,-2.7386,-2.738,-2.7404,-2.7365,-2.7427,-2.7355,-2.7365,-2.7366,-2.7375,-2.7555,-2.7598,-2.7717,-2.7491,-2.7493,-2.7495,0,-2.7704,-2.7692,-2.7748,-2.7701,-2.7703,-2.7726,-2.7712,-2.7717,-2.769,-2.7662,-2.7653,-2.7596,-2.7621,-2.7548,-2.7582,-2.7535,-2.7536,-2.7518,-2.7521,-2.7518,-2.7438,-2.7558,-2.7754,-2.7772,-2.7519,-2.7517,-2.7515,0,-2.7853,-2.7851,-2.7884,-2.7874,-2.7821,-2.7839,-2.7817,-2.7786,-2.7784,-2.7772,-2.7771,-2.7763,-2.7759,-2.7755,-2.7698,-2.765,-2.774,-2.7661,-2.7719,-2.772,-2.774,-2.774,-2.794,-2.7743,-2.7742,-2.7742,-2.7742,0,-2.7997,-2.8035,-2.795,-2.7971,-2.8012,-2.7942,-2.7985,-2.7955,-2.7928,-2.7942,-2.7869,-2.7885,-2.781,-2.7818,-2.7774,-2.7809,-2.7808,-2.7788,-2.7776,-2.7794,-2.7796,-2.7792,-2.7783,-2.7747,-2.7746,-2.7745,-2.7744,0,-2.8169,-2.8114,-2.8145,-2.8092,-2.808,-2.8112,-2.8067,-2.8085,-2.8047,-2.8066,-2.8067,-2.8007,-2.8013,-2.7956,-2.7952,-2.7922,-2.7978,-2.7952,-2.7987,-2.7979,-2.8039,-2.8034,-2.8243,-2.8267,-2.8056,-2.8058,-2.8059,0,-2.8265,-2.8292,-2.8242,-2.8246,-2.8229,-2.8236,-2.8234,-2.8167,-2.8168,-2.814,-2.8162,-2.8162,-2.8157,-2.8171,-2.8128,-2.8125,-2.8097,-2.8171,-2.8096,-2.8114,-2.8098,-2.8097,-2.81,-2.8186,-2.8189,-2.8191,-2.8193,0,-2.844,-2.8412,-2.841,-2.8401,-2.84,-2.8389,-2.8374,-2.8382,-2.831,-2.8315,-2.832,-2.8317,-2.8313,-2.8314,-2.8302,-2.8281,-2.8226,-2.8217,-2.823,-2.8248,-2.8267,-2.8258,-2.8029,-2.8212,-2.821,-2.8208,-2.8207,-2.8207,-2.8576,-2.8596,-2.8565,-2.8567,-2.8548,-2.8536,-2.8551,-2.8514,-2.8517,-2.8507,-2.8469,-2.8481,-2.8454,-2.8433,-2.8418,-2.8427,-2.8392,-2.8411,-2.8415,-2.8421,-2.8432,-2.8267,-2.8425,-2.8425,-2.8424,-2.8423,-2.8423,0,-2.8747,-2.8723,-2.8725,-2.8706,-2.8708,-2.8656,-2.8637,-2.8642,-2.8654,-2.8633,-2.8631,-2.8638,-2.8639,-2.8597,-2.8593,-2.8609,-2.8584,-2.8611,-2.8608,-2.8605,-2.8464,-2.8453,-2.8631,-2.8631,-2.8631,-2.8631,-2.8631,-2.8631,-2.8836,-2.8868,-2.8837,-2.886,-2.8836,-2.8846,-2.884,-2.8829,-2.8813,-2.8823,-2.8824,-2.8796,-2.8768,-2.8762,-2.8761,-2.8749,-2.8751,-2.8787,-2.8766,-2.8635,-2.8614,-2.8595,-2.8584,-2.8788,-2.8788,-2.8906,-2.8907,-2.8908]},{"header":{"parameterUnit":"m.s-1","parameterCategory":1,"la1":30.2991,"la2":30.254,"lo1":-89.0895,"lo2":-89.0444,"dy":0.0017,"dx":0.0017,"nx":28,"ny":28,"refTime":"2023-10-26T21:00:00:Z","depth":0,"parameterNumber":3,"parameterNumberName":"V-component_of_WINDS"},"data":[0,0,0,0,0,0,0,0,0,0,0,0,0,0,0,0,0,0,0,0,0,0,0,0,0,0,0,0,0,0,0,0,0,0,0,0,0,0,0,0,0,0,0,0,0,0,0,0,0,0,0,0,0,0,0,0,0,0,-1.26,-1.26,0,-1.2617,-1.2617,-1.2617,-1.2637,-1.2637,-1.2637,-1.2638,-1.2652,-1.2653,-1.2653,0,0,0,0,0,0,0,0,0,0,0,0,0,-1.258,-1.258,-1.26,-1.26,-1.26,-1.2617,-1.2617,-1.2617,-1.2637,-1.2637,-1.2637,-1.2638,-1.2652,-1.2653,-1.2653,0,0,0,0,0,0,0,0,0,0,0,0,0,-1.2592,-1.258,-1.26,-1.2612,-1.2613,-1.2617,-1.2617,-1.2617,-1.2637,-1.2637,-1.2637,-1.2638,-1.2652,-1.2653,-1.2653,-1.2645,0,0,-1.2653,-1.2653,0,0,0,0,0,0,0,0,-1.2591,-1.2592,-1.261,-1.2611,-1.2612,-1.2625,-1.2615,-1.2626,-1.2636,-1.2628,-1.2638,-1.2638,-1.2643,-1.2644,-1.2646,-1.2646,-1.2646,-1.2653,-1.2653,-1.2653,-1.2654,0,0,0,0,0,0,0,-1.259,-1.2592,-1.2606,-1.261,-1.2612,-1.2615,-1.2617,-1.2617,-1.2632,-1.2628,-1.263,-1.2632,-1.2644,-1.2646,-1.2646,-1.2646,-1.2653,-1.2653,-1.2654,-1.2654,-1.2637,-1.2636,0,0,0,0,0,0,-1.2588,-1.2591,-1.2606,-1.2607,-1.2603,-1.2615,-1.2617,-1.2621,-1.2632,-1.2635,-1.2631,-1.2633,-1.2645,-1.2646,-1.2647,-1.2636,-1.2653,-1.2654,-1.2654,-1.2637,-1.2636,-1.2636,0,0,0,0,0,0,-1.2587,-1.2589,-1.2605,-1.2599,-1.2602,-1.2615,-1.2618,-1.2621,-1.2623,-1.2635,-1.2637,-1.2631,-1.2646,-1.2647,-1.2645,-1.2637,-1.2654,-1.2654,-1.2638,-1.2637,-1.2636,-1.2616,0,0,0,0,0,0,-1.2587,-1.2589,-1.2587,-1.2599,-1.2602,-1.2604,-1.2618,-1.2621,-1.2623,-1.2625,-1.2635,-1.2637,-1.2646,-1.2644,-1.2645,-1.2638,-1.2654,-1.2638,-1.2637,-1.2636,-1.2617,-1.2615,-1.2612,0,0,0,0,0,-1.2586,-1.2581,-1.2587,-1.2589,-1.26,-1.2603,-1.2605,-1.2616,-1.2623,-1.262,-1.2627,-1.2637,-1.2638,-1.2644,-1.2645,-1.2638,-1.2639,-1.2638,-1.2636,-1.2619,-1.2615,-1.2612,0,0,0,0,0,0,-1.2568,-1.2583,-1.259,-1.2589,-1.2595,-1.2607,-1.2604,-1.2612,-1.2616,-1.2617,-1.263,-1.2632,-1.2628,-1.2633,-1.2639,-1.2629,-1.264,-1.2638,-1.2626,-1.2623,-1.262,-1.2619,-1.2654,0,0,0,0,0,-1.2564,-1.2566,-1.2579,-1.2577,-1.2579,-1.2591,-1.2593,-1.2601,-1.2607,-1.2609,-1.2616,-1.2621,-1.2622,-1.2623,-1.2625,-1.2618,-1.2619,-1.2613,-1.2611,-1.2609,-1.2607,-1.2601,-1.2598,-1.2632,-1.2632,-1.2632,0,0,-1.2556,-1.2564,-1.2565,-1.2573,-1.2579,-1.2579,-1.2593,-1.2594,-1.2594,-1.2609,-1.2607,-1.2612,-1.2618,-1.2613,-1.2611,-1.2617,-1.2598,-1.2607,-1.2605,-1.2605,-1.2599,-1.2596,-1.2593,-1.2631,-1.2631,-1.2631,0,0,-1.2541,-1.2548,-1.2546,-1.2551,-1.2558,-1.2566,-1.2565,-1.2575,-1.2579,-1.2577,-1.2588,-1.2587,-1.259,-1.2593,-1.2594,-1.2577,-1.2584,-1.2577,-1.2563,-1.2557,-1.2554,-1.2552,-1.2543,-1.254,-1.2576,-1.2576,-1.2576,0,-1.2529,-1.2532,-1.2544,-1.2543,-1.2545,-1.2559,-1.2555,-1.2559,-1.2567,-1.2567,-1.2573,-1.2575,-1.258,-1.2574,-1.2569,-1.2571,-1.2569,-1.2576,-1.2554,-1.2551,-1.2549,-1.2541,-1.2538,-1.2574,-1.2575,-1.2575,-1.2575,0,-1.2516,-1.2517,-1.2514,-1.2521,-1.2522,-1.252,-1.253,-1.253,-1.2537,-1.2543,-1.2539,-1.2545,-1.2547,-1.2546,-1.2554,-1.2541,-1.2543,-1.2552,-1.2563,-1.2545,-1.2537,-1.2534,-1.2573,-1.2573,-1.2574,-1.2574,0,0,-1.2492,-1.2503,-1.2502,-1.2504,-1.2512,-1.2512,-1.2509,-1.2511,-1.251,-1.2514,-1.251,-1.251,-1.2517,-1.2519,-1.2526,-1.252,-1.2502,-1.2529,-1.2529,-1.2522,-1.2485,-1.2478,-1.2474,-1.2508,-1.2507,-1.2507,-1.2484,0,-1.2477,-1.2474,-1.2483,-1.2477,-1.2476,-1.2488,-1.2484,-1.2488,-1.2492,-1.2491,-1.2496,-1.2495,-1.2505,-1.2506,-1.2501,-1.2506,-1.2495,-1.2508,-1.2502,-1.2502,-1.2499,-1.2471,-1.2464,-1.2442,-1.2481,-1.2481,-1.2481,0,-1.2461,-1.2463,-1.2456,-1.2462,-1.2462,-1.2459,-1.246,-1.2459,-1.2462,-1.2465,-1.2466,-1.2473,-1.2468,-1.2479,-1.2471,-1.248,-1.2478,-1.2479,-1.2478,-1.2477,-1.249,-1.2467,-1.2436,-1.2432,-1.2476,-1.2477,-1.2477,0,-1.2442,-1.2443,-1.2438,-1.244,-1.2447,-1.2444,-1.2446,-1.2449,-1.2449,-1.2449,-1.2448,-1.2448,-1.2447,-1.2446,-1.2452,-1.246,-1.2442,-1.2454,-1.2443,-1.2442,-1.2438,-1.2438,-1.2404,-1.2439,-1.2439,-1.2439,-1.2439,0,-1.2424,-1.2419,-1.2429,-1.2427,-1.242,-1.2429,-1.2422,-1.2425,-1.2428,-1.2424,-1.2434,-1.243,-1.2439,-1.2435,-1.244,-1.243,-1.2431,-1.2431,-1.2433,-1.243,-1.2429,-1.2428,-1.2429,-1.2438,-1.2438,-1.2439,-1.2439,0,-1.2402,-1.2409,-1.2404,-1.241,-1.2411,-1.2406,-1.241,-1.2406,-1.241,-1.2405,-1.2404,-1.2411,-1.2406,-1.2412,-1.2409,-1.2412,-1.2398,-1.2403,-1.2397,-1.2398,-1.2385,-1.2386,-1.2348,-1.2343,-1.2383,-1.2382,-1.2382,0,-1.239,-1.2386,-1.2391,-1.2389,-1.2391,-1.2388,-1.2387,-1.2395,-1.2393,-1.2393,-1.2389,-1.2385,-1.2383,-1.2375,-1.2378,-1.2374,-1.2377,-1.2364,-1.2377,-1.2373,-1.2374,-1.2374,-1.2372,-1.2362,-1.2361,-1.2361,-1.236,0,-1.2367,-1.237,-1.2369,-1.2367,-1.2365,-1.2365,-1.2365,-1.2362,-1.237,-1.2367,-1.2362,-1.236,-1.2355,-1.2351,-1.2347,-1.2348,-1.2354,-1.2356,-1.2353,-1.235,-1.2346,-1.2345,-1.2389,-1.2357,-1.2357,-1.2358,-1.2358,-1.2358,-1.2349,-1.2345,-1.2346,-1.2343,-1.2343,-1.2342,-1.2338,-1.2341,-1.2337,-1.2334,-1.2338,-1.2331,-1.2331,-1.2327,-1.2326,-1.232,-1.2325,-1.2321,-1.232,-1.2318,-1.2315,-1.2348,-1.2319,-1.2319,-1.232,-1.232,-1.232,0,-1.2325,-1.2326,-1.2323,-1.2321,-1.2318,-1.2324,-1.2323,-1.232,-1.2314,-1.2313,-1.2309,-1.2302,-1.2297,-1.2298,-1.2293,-1.2287,-1.2289,-1.2285,-1.2285,-1.2284,-1.2312,-1.2314,-1.2283,-1.2283,-1.2283,-1.2283,-1.2283,-1.2283,-1.2312,-1.2304,-1.2307,-1.2297,-1.2298,-1.2292,-1.229,-1.2288,-1.2287,-1.2278,-1.2273,-1.2274,-1.2273,-1.2267,-1.2261,-1.2261,-1.2258,-1.2252,-1.2253,-1.2279,-1.2283,-1.2286,-1.2288,-1.2252,-1.2251,-1.2225,-1.2225,-1.2225]}]]